[[{"header":{"parameterUnit":"m.s-1","parameterCategory":1,"la1":30.2991,"la2":30.254,"lo1":-89.0895,"lo2":-89.0444,"dy":0.0017,"dx":0.0017,"nx":28,"ny":28,"refTime":"2026-02-05T03:00:00:Z","depth":0,"parameterNumber":2,"parameterNumberName":"U-component_of_WINDS"},"data":[0,0,0,0,0,0,0,0,0,0,0,0,0,0,0,0,0,0,0,0,0,0,0,0,0,0,0,0,0,0,0,0,0,0,0,0,0,0,0,0,0,0,0,0,0,0,0,0,0,0,0,0,0,0,0,0,0,0,3.9076,3.9076,0,3.9095,3.9095,3.9095,3.9053,3.9052,3.9051,3.9049,3.907,3.9072,3.9074,0,0,0,0,0,0,0,0,0,0,0,0,0,3.9009,3.901,3.9076,3.9076,3.9076,3.9095,3.9095,3.9095,3.9054,3.9052,3.905,3.9049,3.907,3.9072,3.9074,0,0,0,0,0,0,0,0,0,0,0,0,0,3.9034,3.9011,3.9076,3.9058,3.9056,3.9094,3.9095,3.9095,3.9054,3.9052,3.905,3.9048,3.9069,3.9072,3.9074,3.9132,0,0,3.9083,3.9084,0,0,0,0,0,0,0,0,3.9032,3.9036,3.906,3.9059,3.9057,3.9069,3.9079,3.9107,3.9054,3.9055,3.9049,3.9047,3.9072,3.9074,3.9082,3.9133,3.9133,3.9083,3.9085,3.9086,3.9087,0,0,0,0,0,0,0,3.9031,3.9035,3.9083,3.906,3.9059,3.905,3.9052,3.9084,3.9074,3.9055,3.9052,3.9054,3.9071,3.908,3.9082,3.9134,3.9083,3.9085,3.9087,3.9088,3.9239,3.9242,0,0,0,0,0,0,3.9031,3.9034,3.9083,3.9084,3.904,3.9053,3.9055,3.9068,3.9074,3.9073,3.9056,3.9052,3.9076,3.9079,3.9083,3.9155,3.9086,3.9088,3.909,3.9237,3.924,3.9242,0,0,0,0,0,0,3.903,3.9035,3.9082,3.9058,3.9063,3.9056,3.9071,3.9069,3.9078,3.9075,3.9073,3.9067,3.9075,3.9079,3.9121,3.9155,3.909,3.9092,3.9234,3.9238,3.9241,3.9297,0,0,0,0,0,0,3.9028,3.9035,3.9055,3.9059,3.9065,3.9118,3.9073,3.9071,3.9083,3.9078,3.9085,3.9084,3.9073,3.9118,3.9124,3.9158,3.9094,3.9231,3.9236,3.924,3.9292,3.9302,3.9311,0,0,0,0,0,3.9025,3.9069,3.9056,3.9063,3.909,3.912,3.9124,3.911,3.9085,3.9107,3.9106,3.9084,3.915,3.9122,3.9129,3.9164,3.9229,3.9234,3.924,3.9288,3.93,3.9311,0,0,0,0,0,0,3.9069,3.9069,3.9055,3.9101,3.9111,3.9113,3.9139,3.9122,3.914,3.9135,3.9118,3.912,3.9167,3.9169,3.9138,3.9223,3.9186,3.9193,3.922,3.9232,3.9241,3.9241,3.9096,0,0,0,0,0,3.9084,3.9108,3.9107,3.9148,3.9154,3.9146,3.9159,3.9148,3.9158,3.9162,3.9163,3.9175,3.9199,3.9215,3.9236,3.9292,3.9296,3.932,3.933,3.9337,3.9344,3.938,3.9393,3.926,3.926,3.926,0,0,3.9115,3.9118,3.9134,3.9157,3.9163,3.9191,3.915,3.9179,3.92,3.9166,3.9208,3.921,3.9222,3.9273,3.9295,3.9276,3.9382,3.9344,3.935,3.9353,3.9387,3.94,3.9411,3.9264,3.9263,3.9262,0,0,3.9187,3.9189,3.9226,3.9235,3.9246,3.9241,3.925,3.9256,3.9257,3.9298,3.9275,3.9301,3.934,3.9352,3.9363,3.9445,3.9427,3.9452,3.9501,3.9536,3.9547,3.9556,3.959,3.9602,3.9459,3.9459,3.9459,0,3.9224,3.9263,3.9247,3.928,3.9293,3.9265,3.9305,3.9314,3.9331,3.9342,3.932,3.9374,3.938,3.9436,3.9457,3.9465,3.9478,3.9452,3.9546,3.9556,3.9564,3.9597,3.9609,3.9462,3.9462,3.9462,3.9461,0,3.9311,3.9339,3.9368,3.9388,3.9404,3.9439,3.9432,3.9451,3.944,3.9439,3.9484,3.949,3.9515,3.9527,3.9515,3.9584,3.9573,3.9549,3.9511,3.958,3.9611,3.9623,3.9467,3.9466,3.9465,3.9464,0,0,3.9409,3.9423,3.9434,3.9446,3.9458,3.948,3.9517,3.9542,3.9561,3.9574,3.9608,3.9645,3.9625,3.9638,3.9628,3.9658,3.973,3.9632,3.9632,3.9654,3.9812,3.9832,3.9847,3.9717,3.9719,3.9721,3.9812,0,3.9484,3.9547,3.9536,3.9598,3.9627,3.9603,3.9636,3.9649,3.965,3.9676,3.9677,3.9706,3.9674,3.9683,3.9712,3.9715,3.9762,3.9708,3.9752,3.9754,3.9753,3.9861,3.9882,3.9967,3.9824,3.9826,3.9827,0,3.9578,3.9599,3.9664,3.9678,3.9689,3.9719,3.9744,3.9768,3.9784,3.9783,3.98,3.9786,3.9827,3.9787,3.9845,3.9809,3.9826,3.9831,3.9834,3.9841,3.9797,3.9875,3.9994,4.0008,3.9845,3.9843,3.9842,0,3.965,3.9693,3.9739,3.9749,3.9764,3.9786,3.9794,3.9807,3.9825,3.9848,3.986,3.9887,3.9902,3.9925,3.992,3.989,3.9982,3.994,3.9986,3.9986,4.0007,4.0007,4.0135,4.0013,4.0012,4.0012,4.0012,0,3.9736,3.9778,3.9772,3.9801,3.9849,3.9838,3.9887,3.9891,3.9905,3.9937,3.9916,3.9947,3.9937,3.9969,3.9965,4.0017,4.0023,4.0026,4.0026,4.003,4.0031,4.0044,4.0039,4.0016,4.0015,4.0014,4.0014,0,3.9824,3.9821,3.9871,3.9882,3.9887,3.9922,3.9933,3.9962,3.9963,4.0004,4.0013,4.0014,4.0051,4.0048,4.0087,4.0086,4.0152,4.0142,4.0147,4.0146,4.0194,4.0191,4.0338,4.0359,4.0219,4.022,4.0221,0,3.9881,3.9913,3.993,3.995,3.996,3.9991,4.0011,4.0002,4.0023,4.0047,4.0074,4.0109,4.0136,4.0196,4.0202,4.0234,4.0228,4.0277,4.0232,4.0238,4.0235,4.0234,4.024,4.0287,4.0288,4.029,4.0291,0,3.9984,3.9982,4.001,4.0039,4.0063,4.0085,4.0105,4.0123,4.0117,4.0143,4.018,4.0202,4.0245,4.0281,4.0313,4.0323,4.0309,4.0305,4.0318,4.0325,4.0328,4.0332,4.0176,4.0302,4.0301,4.03,4.0299,4.0299,4.0061,4.0091,4.0109,4.0143,4.0158,4.0178,4.0208,4.0214,4.0244,4.0279,4.0272,4.0316,4.0337,4.0378,4.0392,4.0428,4.041,4.0428,4.0433,4.0439,4.0447,4.032,4.0433,4.0432,4.0432,4.0432,4.0432,0,4.0168,4.0179,4.021,4.024,4.0268,4.025,4.0274,4.0299,4.0337,4.0357,4.0386,4.0432,4.0468,4.0479,4.0515,4.0542,4.0537,4.0553,4.0552,4.0556,4.0457,4.0445,4.0557,4.0557,4.0557,4.0557,4.0557,4.0557,4.0227,4.0279,4.028,4.0341,4.0352,4.0394,4.041,4.0431,4.0447,4.05,4.0531,4.0537,4.0555,4.0593,4.0628,4.063,4.0647,4.0667,4.0667,4.0575,4.0562,4.055,4.0539,4.0669,4.0669,4.0763,4.0764,4.0765]},{"header":{"parameterUnit":"m.s-1","parameterCategory":1,"la1":30.2991,"la2":30.254,"lo1":-89.0895,"lo2":-89.0444,"dy":0.0017,"dx":0.0017,"nx":28,"ny":28,"refTime":"2026-02-05T03:00:00:Z","depth":0,"parameterNumber":3,"parameterNumberName":"V-component_of_WINDS"},"data":[0,0,0,0,0,0,0,0,0,0,0,0,0,0,0,0,0,0,0,0,0,0,0,0,0,0,0,0,0,0,0,0,0,0,0,0,0,0,0,0,0,0,0,0,0,0,0,0,0,0,0,0,0,0,0,0,0,0,0.4936,0.4937,0,0.5059,0.5061,0.5062,0.5031,0.5028,0.5026,0.5024,0.5153,0.5159,0.5165,0,0,0,0,0,0,0,0,0,0,0,0,0,0.4674,0.4679,0.4936,0.4937,0.4939,0.5059,0.5061,0.5063,0.5031,0.5028,0.5025,0.5023,0.5151,0.5158,0.5165,0,0,0,0,0,0,0,0,0,0,0,0,0,0.4792,0.4681,0.4936,0.4938,0.4939,0.5059,0.5061,0.5063,0.5032,0.5028,0.5025,0.5021,0.5149,0.5158,0.5166,0.5292,0,0,0.5192,0.5196,0,0,0,0,0,0,0,0,0.4785,0.4802,0.4936,0.4938,0.494,0.5026,0.5016,0.514,0.5033,0.4997,0.5024,0.5019,0.5114,0.5125,0.5157,0.5298,0.5304,0.5193,0.5198,0.5202,0.5204,0,0,0,0,0,0,0,0.4777,0.4796,0.4985,0.4938,0.494,0.4933,0.4946,0.5039,0.5075,0.5,0.4998,0.5012,0.5114,0.5148,0.5159,0.5306,0.5193,0.52,0.5206,0.5209,0.5554,0.5558,0,0,0,0,0,0,0.4767,0.479,0.4981,0.4989,0.4852,0.4941,0.4955,0.5002,0.5073,0.5081,0.5015,0.5011,0.5136,0.5149,0.5164,0.5314,0.5202,0.521,0.5215,0.555,0.5555,0.5559,0,0,0,0,0,0,0.4762,0.4785,0.4976,0.4889,0.4912,0.4949,0.5002,0.5006,0.504,0.5085,0.5092,0.5044,0.5133,0.5152,0.526,0.5318,0.5214,0.5222,0.5545,0.5552,0.5557,0.5617,0,0,0,0,0,0,0.4754,0.4783,0.4831,0.489,0.4917,0.5069,0.5006,0.5011,0.5055,0.5049,0.5113,0.5121,0.5132,0.5247,0.5268,0.5328,0.5228,0.554,0.5548,0.5555,0.561,0.5624,0.5637,0,0,0,0,0,0.4745,0.4844,0.4834,0.4857,0.4978,0.5073,0.5089,0.5099,0.506,0.5108,0.5137,0.5119,0.5308,0.5258,0.5282,0.5345,0.5537,0.5546,0.5555,0.5604,0.5621,0.5636,0,0,0,0,0,0,0.4793,0.4852,0.4841,0.4962,0.5012,0.5067,0.5129,0.5117,0.5181,0.5173,0.5184,0.5199,0.5308,0.5338,0.5281,0.547,0.5417,0.5431,0.5446,0.5463,0.5476,0.5467,0.5235,0,0,0,0,0,0.4818,0.4889,0.4937,0.5039,0.5065,0.5093,0.5135,0.5137,0.5191,0.5212,0.5249,0.5302,0.5373,0.542,0.5488,0.5614,0.5626,0.5669,0.5682,0.5693,0.5705,0.5771,0.579,0.5589,0.5589,0.5589,0,0,0.487,0.491,0.4955,0.505,0.5089,0.5163,0.5111,0.5192,0.5247,0.5225,0.5328,0.5357,0.5416,0.5533,0.5586,0.5561,0.5763,0.5705,0.5713,0.5719,0.5782,0.5801,0.5818,0.5595,0.5594,0.5593,0,0,0.5001,0.504,0.5128,0.5168,0.5227,0.5245,0.5266,0.5322,0.534,0.5443,0.5427,0.5493,0.5616,0.5659,0.5696,0.5841,0.5826,0.5863,0.5933,0.5997,0.6013,0.6027,0.6076,0.6094,0.5875,0.5875,0.5875,0,0.5058,0.5168,0.5175,0.5256,0.5298,0.528,0.5368,0.5407,0.5487,0.5516,0.5486,0.5638,0.5678,0.5802,0.5837,0.5869,0.5893,0.5856,0.601,0.6024,0.6037,0.6084,0.6103,0.5879,0.5879,0.5878,0.5878,0,0.5234,0.531,0.5374,0.5449,0.5498,0.5583,0.5603,0.5651,0.565,0.567,0.5774,0.582,0.5896,0.5926,0.5927,0.6051,0.6033,0.6007,0.5953,0.606,0.6104,0.6123,0.5885,0.5883,0.5882,0.5881,0,0,0.54,0.5476,0.5499,0.5531,0.5595,0.5654,0.5738,0.581,0.5851,0.5906,0.5976,0.6079,0.6054,0.6097,0.6101,0.6158,0.6267,0.6125,0.6126,0.6148,0.6404,0.6422,0.6443,0.6257,0.6261,0.6264,0.6398,0,0.5535,0.5681,0.5689,0.5821,0.589,0.5873,0.5946,0.5993,0.6014,0.6076,0.6099,0.6171,0.6134,0.6159,0.6215,0.6242,0.6318,0.6232,0.6321,0.6324,0.6305,0.6466,0.6486,0.6611,0.6415,0.6419,0.6421,0,0.5713,0.5771,0.591,0.596,0.599,0.6055,0.6121,0.6181,0.6233,0.6244,0.629,0.6286,0.6371,0.6315,0.6432,0.6373,0.641,0.6428,0.6433,0.6441,0.6378,0.6477,0.6651,0.6669,0.6449,0.6446,0.6444,0,0.5817,0.5931,0.6027,0.6056,0.6119,0.6164,0.6193,0.6241,0.6283,0.6341,0.6368,0.6436,0.6473,0.6526,0.6539,0.6498,0.6655,0.6601,0.6665,0.6665,0.6698,0.6696,0.6879,0.6725,0.6725,0.6724,0.6724,0,0.5967,0.6052,0.6074,0.6134,0.6228,0.6236,0.633,0.6355,0.6398,0.6461,0.6452,0.6512,0.6527,0.659,0.6602,0.6695,0.6712,0.6723,0.6725,0.6723,0.6721,0.6746,0.6737,0.6729,0.6728,0.6727,0.6726,0,0.6099,0.6118,0.6222,0.6272,0.6286,0.6353,0.6396,0.6453,0.6471,0.6552,0.6572,0.6602,0.6675,0.6694,0.6782,0.679,0.6899,0.6893,0.6881,0.688,0.6942,0.6935,0.7147,0.7175,0.7004,0.7006,0.7007,0,0.6192,0.6257,0.6313,0.6354,0.6384,0.6451,0.6493,0.6504,0.6548,0.6611,0.666,0.6732,0.6789,0.6907,0.6937,0.7003,0.6998,0.7068,0.7008,0.7003,0.6997,0.6992,0.6997,0.7079,0.7081,0.7082,0.7083,0,0.6355,0.636,0.6421,0.6485,0.6536,0.6587,0.6636,0.6671,0.6688,0.6738,0.6812,0.6857,0.6945,0.7016,0.7083,0.7112,0.71,0.7102,0.712,0.7118,0.7107,0.7111,0.6909,0.7097,0.7095,0.7094,0.7094,0.7093,0.6469,0.6525,0.6572,0.664,0.6677,0.6722,0.6777,0.6802,0.6863,0.6935,0.6938,0.7018,0.7066,0.7154,0.7187,0.7249,0.7228,0.7255,0.7262,0.7268,0.7272,0.7098,0.7262,0.7262,0.7261,0.7261,0.7261,0,0.6629,0.6658,0.6721,0.6788,0.6841,0.6824,0.6877,0.6923,0.6992,0.7038,0.7094,0.7178,0.7246,0.728,0.7347,0.739,0.7387,0.7408,0.7404,0.741,0.7288,0.7265,0.7409,0.7409,0.7409,0.7409,0.7409,0.7409,0.6719,0.6811,0.6822,0.6932,0.696,0.7037,0.7068,0.711,0.7146,0.7239,0.7295,0.7317,0.7357,0.7427,0.7488,0.7496,0.752,0.7544,0.7549,0.7434,0.7419,0.7405,0.7382,0.755,0.755,0.7666,0.7667,0.7667]}]]